DW5890 Weather Reports


time (UTC)temp
C
wind
direction
speed
KPH
gust
KPH
rain 1hr
cm
rain 24hr
cm
rain mn
cm
humidity
%
barometer
mb
20260502180553 18 360 20.9 38.6 0.00 0.00 0.00 35 1017.1
20260502164046 18 360 20.9 35.4 0.00 0.00 0.00 39 1016.9
20260502163543 18 360 25.7 43.5 0.00 0.00 0.00 39 1016.9
20260502163048 18 360 25.7 43.5 0.00 0.00 0.00 39 1016.9
20260502162545 18 360 25.7 38.6 0.00 0.00 0.00 39 1016.8
20260502162041 17 360 20.9 32.2 0.00 0.00 0.00 39 1016.8
20260502161557 17 360 24.1 33.8 0.00 0.00 0.00 39 1016.7
20260502161041 17 360 25.7 35.4 0.00 0.00 0.00 40 1016.7
20260502160538 17 360 24.1 35.4 0.00 0.00 0.00 40 1016.7
20260502152030 15 360 12.9 19.3 0.00 0.00 0.00 47 1016.5
20260502151530 15 360 12.9 20.9 0.00 0.00 0.00 46 1016.5
20260502151029 15 360 16.1 20.9 0.00 0.00 0.00 47 1016.5
20260502150528 15 360 12.9 22.5 0.00 0.00 0.00 46 1016.4
20260502130519 9 360 0.0 3.2 0.00 0.00 0.00 61 1016.2
20260502123516 7 360 6.4 8.0 0.00 0.00 0.00 63 1016.1
20260502123018 7 127 3.2 9.7 0.00 0.00 0.00 61 1015.9
20260502122512 7 360 1.6 9.7 0.00 0.00 0.00 59 1016.0
20260502122022 8 360 0.0 0.0 0.00 0.00 0.00 58 1016.0
20260502121512 8 360 0.0 0.0 0.00 0.00 0.00 58 1015.9
20260502121011 8 360 0.0 0.0 0.00 0.00 0.00 57 1015.8
20260502120514 8 360 0.0 3.2 0.00 0.00 0.00 57 1015.8
20260502115518 8 360 3.2 6.4 0.00 0.00 0.00 57 1015.7
20260502115018 8 360 3.2 6.4 0.00 0.00 0.00 57 1015.6
20260502114513 8 360 0.0 1.6 0.00 0.00 0.00 56 1015.5
20260502114010 8 360 0.0 4.8 0.00 0.00 0.00 56 1015.5
20260502113511 8 360 1.6 4.8 0.00 0.00 0.00 56 1015.5
20260502113010 8 360 0.0 4.8 0.00 0.00 0.00 56 1015.5
20260502112510 8 360 1.6 4.8 0.00 0.00 0.00 56 1015.5
20260502112012 8 360 1.6 4.8 0.00 0.00 0.00 56 1015.5
20260502111509 8 360 0.0 6.4 0.00 0.00 0.00 57 1015.5
20260502111009 8 360 3.2 6.4 0.00 0.00 0.00 57 1015.6
20260502110509 8 360 3.2 6.4 0.00 0.00 0.00 57 1015.5
20260502105509 8 360 6.4 9.7 0.00 0.00 0.00 57 1015.6
20260502105008 8 360 4.8 9.7 0.00 0.00 0.00 57 1016.0
20260502104508 8 360 1.6 6.4 0.00 0.00 0.00 57 1016.0
20260502104009 8 360 3.2 6.4 0.00 0.00 0.00 57 1016.0
20260502103510 8 360 0.0 9.7 0.00 0.00 0.00 56 1016.1
20260502103011 8 360 3.2 12.9 0.00 0.00 0.00 56 1016.0
20260502102507 8 360 6.4 20.9 0.00 0.00 0.00 56 1015.8
20260502102012 8 360 9.7 20.9 0.00 0.00 0.00 56 1015.9
20260502101504 8 360 6.4 27.4 0.00 0.00 0.00 55 1015.7
20260502101004 8 360 19.3 29.0 0.00 0.00 0.00 54 1015.8
20260502100502 10 360 12.9 16.1 0.00 0.00 0.00 49 1015.7
20260502091057 12 360 19.3 32.2 0.00 0.00 0.00 42 1015.3
20260502090556 12 360 17.7 27.4 0.00 0.00 0.00 42 1015.3
20260502071043 11 360 16.1 22.5 0.00 0.00 0.00 44 1016.3
20260502070544 10 360 16.1 22.5 0.00 0.00 0.00 45 1016.4
20260502065542 10 360 12.9 19.3 0.00 0.00 0.00 46 1016.3
20260502065042 10 360 14.5 22.5 0.00 0.00 0.00 46 1016.3
20260502064544 10 360 16.1 20.9 0.00 0.00 0.00 46 1016.4
20260502064042 10 360 16.1 24.1 0.00 0.00 0.00 47 1016.4
20260502063541 9 360 14.5 24.1 0.00 0.00 0.00 48 1016.5
20260502063053 8 360 14.5 20.9 0.00 0.00 0.00 49 1016.5
20260502062541 9 360 14.5 17.7 0.00 0.00 0.00 48 1016.7
20260502062043 9 360 14.5 19.3 0.00 0.00 0.00 48 1016.7
20260502061539 9 360 16.1 20.9 0.00 0.00 0.00 48 1016.7
20260502061038 9 360 16.1 20.9 0.00 0.00 0.00 47 1016.8
20260502060541 10 360 14.5 20.9 0.00 0.00 0.00 46 1016.8
20260502055540 10 360 16.1 22.5 0.00 0.00 0.00 45 1016.9
20260502055038 9 360 16.1 20.9 0.00 0.00 0.00 47 1016.9
20260502054538 8 360 14.5 19.3 0.00 0.00 0.00 49 1017.0
20260502054036 8 360 14.5 19.3 0.00 0.00 0.00 50 1017.0
20260502053536 8 360 14.5 19.3 0.00 0.00 0.00 50 1017.1
20260502053040 8 360 14.5 20.9 0.00 0.00 0.00 50 1017.1
20260502052535 8 360 14.5 20.9 0.00 0.00 0.00 50 1017.2
20260502052035 9 360 16.1 20.9 0.00 0.00 0.00 49 1017.3
20260502051536 9 360 16.1 20.9 0.00 0.00 0.00 48 1017.2
20260502051035 9 360 14.5 20.9 0.00 0.00 0.00 48 1017.3
20260502050534 8 360 16.1 20.9 0.00 0.00 0.00 49 1017.4
20260502045534 8 360 14.5 19.3 0.00 0.00 0.00 51 1017.5
20260502045034 8 360 14.5 19.3 0.00 0.00 0.00 52 1017.6
20260502044533 8 360 12.9 19.3 0.00 0.00 0.00 51 1017.7
20260502044036 8 360 14.5 19.3 0.00 0.00 0.00 50 1017.7
20260502043534 8 360 12.9 19.3 0.00 0.00 0.00 51 1017.8
20260502043032 8 360 12.9 17.7 0.00 0.00 0.00 51 1017.8
20260502042531 8 360 14.5 17.7 0.00 0.00 0.00 51 1017.9
20260502042035 8 360 12.9 17.7 0.00 0.00 0.00 51 1018.1
20260502041531 8 360 11.3 16.1 0.00 0.00 0.00 51 1018.1
20260502041030 8 360 12.9 17.7 0.00 0.00 0.00 50 1018.0
20260502040529 8 360 12.9 17.7 0.00 0.00 0.00 50 1018.1
20260502035529 7 360 12.9 16.1 0.00 0.00 0.00 52 1018.3
20260502035029 7 360 12.9 16.1 0.00 0.00 0.00 53 1018.3
20260502034529 7 360 11.3 16.1 0.00 0.00 0.00 53 1018.2
20260502034029 7 360 12.9 16.1 0.00 0.00 0.00 53 1018.4
20260502033530 7 360 9.7 14.5 0.00 0.00 0.00 53 1018.5
20260502033034 7 360 9.7 14.5 0.00 0.00 0.00 53 1018.5
20260502032529 7 360 11.3 14.5 0.00 0.00 0.00 52 1018.4
20260502032027 8 360 8.0 12.9 0.00 0.00 0.00 51 1018.5
20260502031527 8 360 8.0 12.9 0.00 0.00 0.00 50 1018.6
20260502031028 8 360 8.0 14.5 0.00 0.00 0.00 49 1018.5
20260502030528 8 360 9.7 14.5 0.00 0.00 0.00 49 1018.4
20260502025526 7 360 11.3 16.1 0.00 0.00 0.00 51 1018.4
20260502025029 8 360 8.0 12.9 0.00 0.00 0.00 50 1018.5
20260502024527 8 360 9.7 12.9 0.00 0.00 0.00 49 1018.5
20260502024026 8 360 9.7 14.5 0.00 0.00 0.00 48 1018.4
20260502023526 9 360 12.9 14.5 0.00 0.00 0.00 45 1018.6
20260502023025 10 360 9.7 12.9 0.00 0.00 0.00 44 1018.6
20260502022524 10 360 8.0 9.7 0.00 0.00 0.00 43 1018.7
20260502022027 11 360 8.0 12.9 0.00 0.00 0.00 42 1018.6
20260502021524 11 360 8.0 12.9 0.00 0.00 0.00 42 1018.6
20260502021025 11 360 8.0 12.9 0.00 0.00 0.00 40 1018.7
20260502020524 13 360 6.4 8.0 0.00 0.00 0.00 37 1018.7
20260502020124 15 360 3.2 8.0 0.00 0.00 0.00 32 1018.8
20260502015524 15 360 4.8 8.0 0.00 0.00 0.00 31 1018.8
20260502015024 16 360 4.8 8.0 0.00 0.00 0.00 30 1018.8
20260502014524 16 360 4.8 9.7 0.00 0.00 0.00 29 1018.8
20260502014023 16 360 4.8 9.7 0.00 0.00 0.00 29 1018.8
20260502013523 17 360 6.4 14.5 0.00 0.00 0.00 28 1018.8
20260502013023 17 360 8.0 16.1 0.00 0.00 0.00 28 1018.9
20260502012523 17 360 8.0 16.1 0.00 0.00 0.00 27 1018.9
20260502012026 17 360 8.0 16.1 0.00 0.00 0.00 26 1018.9
20260502011522 18 360 9.7 19.3 0.00 0.00 0.00 26 1018.9
20260502011021 18 360 11.3 20.9 0.00 0.00 0.00 26 1019.0
20260502010522 18 360 11.3 19.3 0.00 0.00 0.00 25 1019.0
20260502005520 18 360 12.9 17.7 0.00 0.00 0.00 24 1019.1
20260502005020 18 360 11.3 19.3 0.00 0.00 0.00 25 1019.3
20260502004541 18 199 14.5 22.5 0.00 0.00 0.00 25 1019.2
20260502004020 18 360 14.5 22.5 0.00 0.00 0.00 24 1019.2
20260502003518 18 360 8.0 19.3 0.00 0.00 0.00 24 1019.1
20260502003019 18 360 8.0 17.7 0.00 0.00 0.00 23 1019.3
20260502002518 18 360 8.0 19.3 0.00 0.00 0.00 24 1019.3
20260502002018 18 360 12.9 19.3 0.00 0.00 0.00 24 1019.4
20260502001518 18 360 14.5 19.3 0.00 0.00 0.00 23 1019.5
20260502001016 18 360 8.0 22.5 0.00 0.00 0.00 23 1019.7
20260502000516 18 360 14.5 22.5 0.00 0.00 0.00 23 1019.7
20260501235516 19 226 11.3 24.1 0.00 0.00 0.00 22 1019.5
20260501235014 19 231 14.5 29.0 0.00 0.00 0.00 23 1019.5
20260501234514 19 360 9.7 19.3 0.00 0.00 0.00 23 1019.6
20260501234016 19 360 6.4 16.1 0.00 0.00 0.00 22 1019.8
20260501233511 19 251 9.7 17.7 0.00 0.00 0.00 21 1019.7
20260501233010 19 360 12.9 20.9 0.00 0.00 0.00 23 1019.7
20260501232511 19 360 12.9 20.9 0.00 0.00 0.00 22 1019.8
20260501232010 19 360 12.9 19.3 0.00 0.00 0.00 22 1019.8
20260501231514 19 360 8.0 19.3 0.00 0.00 0.00 22 1019.8
20260501231005 19 360 12.9 20.9 0.00 0.00 0.00 22 1019.7
20260501230506 19 360 11.3 25.7 0.00 0.00 0.00 22 1019.7
20260501230104 19 360 11.3 25.7 0.00 0.00 0.00 22 1019.7
20260501225502 19 360 9.7 17.7 0.00 0.00 0.00 22 1019.8
20260501225102 20 244 8.0 46.7 0.00 0.00 0.00 21 1019.9
20260501224559 19 360 16.1 46.7 0.00 0.00 0.00 24 1019.9
20260501224057 19 360 4.8 16.1 0.00 0.00 0.00 21 1020.0
20260501223556 19 360 11.3 19.3 0.00 0.00 0.00 21 1020.1
20260501223105 18 360 6.4 27.4 0.00 0.00 0.00 23 1020.3
20260501222557 18 360 17.7 27.4 0.00 0.00 0.00 23 1020.3
20260501222059 19 360 4.8 17.7 0.00 0.00 0.00 23 1020.3
20260501221559 18 360 9.7 17.7 0.00 0.00 0.00 23 1020.2
20260501221055 18 360 9.7 17.7 0.00 0.00 0.00 22 1020.3
20260501220554 18 360 9.7 22.5 0.00 0.00 0.00 22 1020.3
20260501215552 18 360 11.3 22.5 0.00 0.00 0.00 24 1020.5
20260501215053 18 360 4.8 16.1 0.00 0.00 0.00 24 1020.5
20260501214551 18 360 4.8 19.3 0.00 0.00 0.00 21 1020.5
20260501214050 18 360 14.5 25.7 0.00 0.00 0.00 22 1020.6
20260501213549 18 219 14.5 20.9 0.00 0.00 0.00 24 1020.6
20260501213051 18 360 12.9 20.9 0.00 0.00 0.00 23 1020.6
20260501212550 18 360 4.8 24.1 0.00 0.00 0.00 24 1020.7
20260501212047 18 360 8.0 24.1 0.00 0.00 0.00 23 1020.8
20260501211553 18 360 12.9 24.1 0.00 0.00 0.00 23 1020.9
20260501211046 18 360 14.5 25.7 0.00 0.00 0.00 23 1021.0
20260501210545 18 360 11.3 19.3 0.00 0.00 0.00 23 1021.0
20260501210049 18 360 6.4 22.5 0.00 0.00 0.00 24 1020.9
20260501205548 18 360 6.4 22.5 0.00 0.00 0.00 23 1020.9
20260501205044 18 360 11.3 24.1 0.00 0.00 0.00 25 1020.9
20260501204544 18 360 6.4 27.4 0.00 0.00 0.00 23 1021.0
20260501204044 18 360 14.5 27.4 0.00 0.00 0.00 24 1021.1
20260501203542 18 360 6.4 19.3 0.00 0.00 0.00 25 1021.1
20260501203041 17 360 8.0 20.9 0.00 0.00 0.00 24 1021.3
20260501202540 18 360 9.7 25.7 0.00 0.00 0.00 24 1021.3
20260501202039 17 360 12.9 25.7 0.00 0.00 0.00 25 1021.4
20260501201539 17 360 6.4 17.7 0.00 0.00 0.00 24 1021.4
20260501201042 17 207 6.4 14.5 0.00 0.00 0.00 23 1021.5
20260501200540 17 360 6.4 22.5 0.00 0.00 0.00 24 1021.5
20260501200137 17 360 16.1 27.4 0.00 0.00 0.00 26 1021.4
20260501195536 17 360 14.5 27.4 0.00 0.00 0.00 26 1021.5
20260501195035 17 360 19.3 27.4 0.00 0.00 0.00 25 1021.6
20260501194539 17 360 8.0 19.3 0.00 0.00 0.00 26 1021.6
20260501194034 17 360 11.3 24.1 0.00 0.00 0.00 25 1021.6
20260501193535 17 360 12.9 24.1 0.00 0.00 0.00 26 1021.7
20260501193033 17 360 9.7 20.9 0.00 0.00 0.00 26 1021.6
20260501192530 17 360 8.0 22.5 0.00 0.00 0.00 26 1021.7
20260501192030 17 360 16.1 22.5 0.00 0.00 0.00 25 1021.7
20260501191532 16 360 8.0 19.3 0.00 0.00 0.00 25 1021.7
20260501191030 16 360 9.7 24.1 0.00 0.00 0.00 26 1021.8
20260501190528 17 360 11.3 24.1 0.00 0.00 0.00 26 1021.8
20260501190028 16 360 11.3 25.7 0.00 0.00 0.00 26 1022.0
20260501185528 16 87 14.5 25.7 0.00 0.00 0.00 26 1022.0
20260501185028 16 360 11.3 22.5 0.00 0.00 0.00 28 1022.0
20260501184527 16 360 12.9 22.5 0.00 0.00 0.00 27 1022.0
20260501184027 16 360 14.5 19.3 0.00 0.00 0.00 27 1022.0
20260501183527 16 360 6.4 27.4 0.00 0.00 0.00 26 1022.1
20260501183027 16 360 14.5 27.4 0.00 0.00 0.00 26 1022.1
20260501182530 16 360 9.7 20.9 0.00 0.00 0.00 29 1022.1
20260501182030 16 360 12.9 24.1 0.00 0.00 0.00 27 1022.1
20260501181526 16 360 14.5 24.1 0.00 0.00 0.00 28 1022.2
20260501181024 16 360 12.9 19.3 0.00 0.00 0.00 27 1022.2